Morgantown, WV

4:14 PM EST on February 14, 2016 (GMT -0500)
Morgantown Municipal-Hart

Weather History for KMGW - December, 2001

Change the Weather History Date:

Wednesday, December 12, 2001

  Actual Average Record
Temperature  
Mean Temperature 53 °F 36 °F  
Max Temperature 60 °F 43 °F 71 °F (1965)
Min Temperature 46 °F 28 °F 0 °F (2010)
Degree Days  
Heating Degree Days 12 29  
Month to date heating degree days 333  
Since 1 July heating degree days 1381  
Cooling Degree Days 0 0  
Month to date cooling degree days 0  
Year to date cooling degree days 814  
Growing Degree Days 3 (Base 50)    
Moisture  
Dew Point 44 °F    
Average Humidity 74    
Maximum Humidity 86    
Minimum Humidity 62    
Precipitation  
Precipitation 0.00 in 0.10 in 0.91 in (1964)
Month to date precipitation 1.22  
Year to date precipitation 40.14  
Sea Level Pressure  
Sea Level Pressure 30.23 in    
Wind  
Wind Speed 6 mph (SE)    
Max Wind Speed 12 mph    
Max Gust Speed -    
Visibility 10 miles    
Events Rain    
T = Trace of Precipitation, MM = Missing Value Source: NWS Daily Summary

Daily Weather History Graph

Daily Weather History Graph

Search for Another Location

Airport or City:

Trip Planner

Search our weather history database for the weather conditions in past years. The results will help you decide how hot, cold, wet, or windy it might be!

Date:

Astronomy

Dec. 12, 2001 Rise Set
Actual Time 7:31 AM EST 4:55 PM EST
Civil Twilight 7:00 AM EST 5:26 PM EST
Nautical Twilight 6:27 AM EST 5:59 PM EST
Astronomical Twilight 5:54 AM EST 6:32 PM EST
Moon 4:59 AM EST (12/12) 3:32 PM EST (12/12)
Length of Visible Light 10h 25m
Length of Day
9h 24m
Waning Crescent, 5% of the Moon is Illuminated
Dec 12
Waning Crescent
Dec 14
New
Dec 22
First Quarter
Dec 30
Full
Jan 5
Last Quarter

Hourly Weather History & Observations

Time (EST) Temp. Windchill Dew Point Humidity Pressure Visibility Wind Dir Wind Speed Gust Speed Precip Events Conditions
12:53 AM 46.9 °F - 39.9 °F 77% 30.33 in 10.0 mi NNW 3.5 mph - N/A   Clear
1:53 AM 46.9 °F - 39.9 °F 77% 30.32 in 10.0 mi Variable 4.6 mph - N/A   Clear
2:53 AM 48.0 °F - 39.9 °F 74% 30.32 in 10.0 mi East 5.8 mph - N/A   Clear
3:53 AM 46.0 °F 43.9 °F 39.9 °F 79% 30.30 in 10.0 mi East 4.6 mph - N/A   Clear
4:53 AM 46.0 °F 43.1 °F 42.1 °F 86% 30.30 in 10.0 mi ESE 5.8 mph - N/A   Clear
5:53 AM 46.9 °F - 42.1 °F 83% 30.30 in 10.0 mi ESE 3.5 mph - N/A   Clear
6:53 AM 46.9 °F - 43.0 °F 86% 30.32 in 10.0 mi Variable 4.6 mph - N/A   Scattered Clouds
7:53 AM 46.9 °F - 43.0 °F 86% 30.33 in 10.0 mi ESE 5.8 mph - N/A   Clear
8:53 AM 48.9 °F - 43.0 °F 80% 30.33 in 10.0 mi ESE 10.4 mph - N/A   Mostly Cloudy
9:53 AM 50.0 °F - 43.0 °F 77% 30.34 in 10.0 mi ESE 10.4 mph - N/A   Mostly Cloudy
10:53 AM 54.0 °F - 45.0 °F 72% 30.32 in 10.0 mi Variable 6.9 mph - N/A   Mostly Cloudy
11:53 AM 55.9 °F - 46.0 °F 69% 30.29 in 10.0 mi SE 6.9 mph - N/A   Mostly Cloudy
12:53 PM 60.1 °F - 46.9 °F 62% 30.23 in 10.0 mi South 10.4 mph - N/A   Mostly Cloudy
1:53 PM 60.1 °F - 46.9 °F 62% 30.19 in 10.0 mi South 4.6 mph - N/A   Mostly Cloudy
2:53 PM 57.0 °F - 45.0 °F 64% 30.17 in 10.0 mi ESE 9.2 mph - N/A   Mostly Cloudy
3:53 PM 55.0 °F - 45.0 °F 69% 30.16 in 10.0 mi ESE 9.2 mph - N/A   Mostly Cloudy
4:53 PM 53.1 °F - 44.1 °F 71% 30.17 in 10.0 mi SE 5.8 mph - N/A   Mostly Cloudy
5:53 PM 53.1 °F - 45.0 °F 74% 30.16 in 10.0 mi SE 11.5 mph - N/A   Mostly Cloudy
6:53 PM 52.0 °F - 44.1 °F 74% 30.14 in 10.0 mi SSE 10.4 mph - N/A   Scattered Clouds
7:53 PM 52.0 °F - 44.1 °F 74% 30.14 in 10.0 mi SE 6.9 mph - N/A   Mostly Cloudy
8:53 PM 53.1 °F - 44.1 °F 71% 30.12 in 10.0 mi SSE 8.1 mph - N/A   Mostly Cloudy
9:53 PM 53.1 °F - 44.1 °F 71% 30.09 in 10.0 mi SE 6.9 mph - N/A   Overcast
10:53 PM 55.0 °F - 43.0 °F 64% 30.06 in 10.0 mi SSE 9.2 mph - N/A   Scattered Clouds
11:53 PM 55.0 °F - 45.0 °F 69% 30.04 in 10.0 mi South 5.8 mph - 0.00 in Rain Light Rain